International Falls, MN

11:01 PM CDT on March 26, 2017 (GMT -0500)
Falls International

Weather History for KINL - December, 2013

Change the Weather History Date:

Wednesday, December 25, 2013

  Actual Average Record
Temperature  
Mean Temperature 0 °F 6 °F  
Max Temperature 13 °F 16 °F 45 °F (1999)
Min Temperature -14 °F -4 °F -37 °F (1996)
Degree Days  
Heating Degree Days 65 59  
Month to date heating degree days 1702 1357  
Since 1 July heating degree days 4060 3818  
Cooling Degree Days 0 0  
Month to date cooling degree days 0 0  
Year to date cooling degree days 224 192  
Moisture  
Dew Point -1 °F    
Average Humidity 76    
Maximum Humidity 88    
Minimum Humidity 63    
Precipitation  
Precipitation T in 0.03 in 0.56 in (2009)
Month to date precipitation 1.26 0.66  
Year to date precipitation 31.66 24.07  
Snow  
Snow 0.70 in 0.50 in 5.20 in (2009)
Month to date snowfall 23.8 12.0  
Since 1 July snowfall 34.7 28.0  
Snow Depth 13.00 in    
Sea Level Pressure  
Sea Level Pressure 30.05 in    
Wind  
Wind Speed 6 mph (WNW)    
Max Wind Speed 20 mph    
Max Gust Speed 23 mph    
Visibility 7 miles    
Events Snow    
T = Trace of Precipitation, MM = Missing Value Source: NWS Daily Summary

Daily Weather History Graph

Daily Weather History Graph

Search for Another Location

Airport or City:

Trip Planner

Search our weather history database for the weather conditions in past years. The results will help you decide how hot, cold, wet, or windy it might be!

Date:

Astronomy

Dec. 25, 2013 Rise Set
Actual Time 8:04 AM CST 4:22 PM CST
Civil Twilight 7:27 AM CST 4:59 PM CST
Nautical Twilight 6:47 AM CST 5:40 PM CST
Astronomical Twilight 6:09 AM CST 6:18 PM CST
Moon 12:05 AM CST (12/25) 11:52 AM CST (12/25)
Length of Visible Light 9h 32m
Length of Day
8h 18m
Waning Gibbous, 48% of the Moon is Illuminated
Dec 25
Waning Gibbous
Jan 1
New
Jan 7
First Quarter
Jan 15
Full
Jan 23
Last Quarter

Hourly Weather History & Observations

Time (CST) Temp. Windchill Dew Point Humidity Pressure Visibility Wind Dir Wind Speed Gust Speed Precip Events Conditions
12:55 AM 7.0 °F -4.5 °F 1.9 °F 80% 30.04 in 3.0 mi SSW 6.9 mph - 0.00 in Snow Light Snow
1:55 AM 7.0 °F -3.3 °F 1.9 °F 80% 30.04 in 4.0 mi SW 5.8 mph - 0.00 in Snow Light Snow
2:55 AM 7.0 °F -3.3 °F 1.9 °F 80% 30.04 in 10.0 mi SW 5.8 mph - 0.00 in   Overcast
3:55 AM 7.0 °F 0.1 °F 3.0 °F 84% 30.04 in 10.0 mi SW 3.5 mph - N/A   Overcast
4:55 AM 8.1 °F 1.4 °F 3.0 °F 80% 30.04 in 5.0 mi WSW 3.5 mph - 0.00 in Snow Light Snow
5:55 AM 7.0 °F 0.1 °F 3.0 °F 84% 30.04 in 10.0 mi WSW 3.5 mph - 0.00 in   Overcast
6:55 AM 8.1 °F 1.4 °F 3.9 °F 83% 30.04 in 9.0 mi West 3.5 mph - N/A   Overcast
7:55 AM 8.1 °F -0.5 °F 3.9 °F 83% 30.05 in 9.0 mi West 4.6 mph - N/A   Overcast
8:55 AM 9.0 °F 2.4 °F 5.0 °F 84% 30.06 in 5.0 mi West 3.5 mph - 0.00 in Snow Light Snow
9:55 AM 10.0 °F 1.8 °F 5.0 °F 80% 30.07 in 2.5 mi West 4.6 mph - 0.00 in Snow Light Snow
10:06 AM 10.4 °F 0.8 °F 6.8 °F 85% 29.98 in 1.8 mi West 5.8 mph - 0.00 in Snow Light Snow
10:33 AM 10.4 °F 0.8 °F 6.8 °F 85% 29.99 in 1.8 mi West 5.8 mph - 0.00 in Snow Light Snow
10:40 AM 10.4 °F 0.8 °F 6.8 °F 85% 29.99 in 2.0 mi WNW 5.8 mph - 0.00 in Snow Light Snow
10:55 AM 12.0 °F 1.5 °F 6.1 °F 77% 30.08 in 3.0 mi West 6.9 mph - 0.00 in   Haze
11:06 AM 12.2 °F 0.7 °F 6.8 °F 79% 29.99 in 2.0 mi WNW 8.1 mph - 0.00 in Snow Light Snow
11:23 AM 12.2 °F -1.0 °F 5.0 °F 73% 29.99 in 2.0 mi WNW 10.4 mph - 0.00 in Snow Light Snow
11:31 AM 12.2 °F -0.2 °F 5.0 °F 73% 29.98 in 3.0 mi WNW 9.2 mph - 0.00 in Snow Light Snow
11:48 AM 12.2 °F -3.1 °F 5.0 °F 73% 29.98 in 6.0 mi WNW 13.8 mph - 0.00 in   Haze
11:55 AM 12.0 °F -1.3 °F 3.9 °F 70% 30.07 in 6.0 mi West 10.4 mph - 0.00 in   Haze
12:26 PM 12.2 °F -1.8 °F 3.2 °F 67% 29.98 in 8.0 mi WNW 11.5 mph - 0.00 in   Overcast
12:37 PM 12.2 °F -3.1 °F 3.2 °F 67% 29.98 in 4.0 mi WNW 13.8 mph - 0.00 in   Haze
12:55 PM 10.9 °F -5.9 °F 1.9 °F 67% 30.07 in 8.0 mi WNW 16.1 mph 23.0 mph 0.00 in   Overcast
1:23 PM 10.4 °F -5.4 °F 1.4 °F 67% 29.98 in 2.5 mi WNW 13.8 mph 20.7 mph 0.00 in Snow Light Snow
1:39 PM 10.4 °F -3.3 °F 1.4 °F 67% 29.98 in 7.0 mi WNW 10.4 mph - 0.00 in Snow Light Snow
1:55 PM 10.0 °F -5.2 °F -0.9 °F 61% 30.07 in 10.0 mi WNW 12.7 mph - 0.00 in   Overcast
2:26 PM 8.6 °F -8.3 °F -0.4 °F 67% 29.99 in 8.0 mi WNW 15.0 mph 21.9 mph 0.00 in   Overcast
2:37 PM 8.6 °F -8.3 °F -0.4 °F 67% 29.99 in 10.0 mi NW 15.0 mph - 0.00 in   Overcast
2:55 PM 9.0 °F -5.1 °F -2.0 °F 61% 30.08 in 10.0 mi WNW 10.4 mph - 0.00 in   Overcast
3:55 PM 8.1 °F -8.4 °F -2.9 °F 61% 30.10 in 9.0 mi WNW 13.8 mph 19.6 mph N/A   Overcast
4:55 PM 7.0 °F -7.5 °F -2.0 °F 67% 30.12 in 10.0 mi NW 10.4 mph - N/A   Overcast
5:55 PM 6.1 °F -7.8 °F -4.0 °F 63% 30.11 in 10.0 mi NW 9.2 mph - 0.00 in   Overcast
6:55 PM 5.0 °F -9.1 °F -5.1 °F 63% 30.12 in 10.0 mi NW 9.2 mph - N/A   Overcast
7:19 PM 5.0 °F -5.6 °F -5.8 °F 61% 30.03 in 10.0 mi NW 5.8 mph - N/A   Overcast
7:55 PM 3.9 °F -5.3 °F -4.0 °F 70% 30.12 in 10.0 mi NW 4.6 mph - N/A   Overcast
8:55 PM 3.0 °F -4.4 °F -5.1 °F 69% 30.12 in 10.0 mi WNW 3.5 mph - N/A   Overcast
9:53 PM 1.4 °F -6.2 °F -5.8 °F 72% 30.02 in 10.0 mi West 3.5 mph - N/A   Mostly Cloudy
9:55 PM 1.0 °F - -5.1 °F 75% 30.12 in 10.0 mi Calm Calm - N/A   Mostly Cloudy
10:55 PM -9.0 °F - -14.1 °F 79% 30.13 in 10.0 mi Calm Calm - N/A   Partly Cloudy
11:08 PM -9.4 °F - -13.0 °F 84% 30.02 in 10.0 mi Calm Calm - N/A   Mostly Cloudy
11:50 PM -13.0 °F - -18.4 °F 77% 30.02 in 10.0 mi Calm Calm - N/A   Scattered Clouds
11:55 PM -14.1 °F - -18.9 °F 79% 30.13 in 10.0 mi Calm Calm - N/A   Scattered Clouds